• In Österreich
  • Länderverzeichnis
  • Für 7 Tage
  • Wassertemperatur
  • Satellitenkarten
  • Wetterkarte
  • News
  • Widgets
  • user-avatar
    Anmelden

    Stündliche Wetter Kepniewo

    Heute, 26 September, Mittwoch

    Zeit Temperatur Niederschläge Wind Luftdruck Luftfeuchtigkeit
    00:00 +5°C° 0 mm 4 m/S 775 mmHg 65%
    01:00 +5°C° 0 mm 4 m/S 775 mmHg 68%
    02:00 +5°C° 0 mm 4 m/S 775 mmHg 71%
    03:00 +5°C° 0 mm 5 m/S 775 mmHg 75%
    04:00 +5°C° 0 mm 5 m/S 775 mmHg 79%
    05:00 +6°C° 0 mm 5 m/S 774 mmHg 76%
    06:00 +5°C° 0 mm 6 m/S 774 mmHg 73%
    07:00 +5°C° 0 mm 6 m/S 774 mmHg 71%
    08:00 +8°C° 0 mm 7 m/S 773 mmHg 67%
    09:00 +9°C° 0 mm 8 m/S 773 mmHg 64%
    10:00 +10°C° 0 mm 8 m/S 773 mmHg 60%
    11:00 +10°C° 0.2 mm 9 m/S 772 mmHg 63%
    12:00 +8°C° 0.2 mm 9 m/S 772 mmHg 66%
    13:00 +8°C° 0.2 mm 9 m/S 771 mmHg 69%
    14:00 +8°C° 0.3 mm 9 m/S 770 mmHg 70%
    15:00 +8°C° 0.3 mm 9 m/S 769 mmHg 70%
    16:00 +8°C° 0.3 mm 9 m/S 768 mmHg 71%
    17:00 +8°C° 0.4 mm 9 m/S 768 mmHg 70%
    18:00 +10°C° 0.4 mm 9 m/S 767 mmHg 69%
    19:00 +10°C° 0.4 mm 8 m/S 767 mmHg 68%
    20:00 +11°C° 0.1 mm 8 m/S 766 mmHg 69%
    21:00 +11°C° 0.1 mm 9 m/S 766 mmHg 69%
    22:00 +12°C° 0.1 mm 9 m/S 766 mmHg 70%
    23:00 +12°C° 0.1 mm 9 m/S 765 mmHg 73%

    Morgen, 27 September, Donnerstag

    Zeit Temperatur Niederschläge Wind Luftdruck Luftfeuchtigkeit
    00:00 +13°C° 0.1 mm 9 m/S 765 mmHg 75%
    01:00 +13°C° 0.1 mm 9 m/S 765 mmHg 78%
    02:00 +13°C° 0.1 mm 9 m/S 765 mmHg 81%
    03:00 +15°C° 0.1 mm 8 m/S 764 mmHg 83%
    04:00 +15°C° 0.1 mm 8 m/S 764 mmHg 86%
    05:00 +15°C° 0.2 mm 8 m/S 765 mmHg 86%
    06:00 +15°C° 0.2 mm 8 m/S 765 mmHg 86%
    07:00 +15°C° 0.2 mm 7 m/S 765 mmHg 86%
    08:00 +16°C° 0.1 mm 7 m/S 766 mmHg 84%
    09:00 +16°C° 0.1 mm 7 m/S 766 mmHg 82%
    10:00 +16°C° 0.1 mm 7 m/S 766 mmHg 80%
    11:00 +16°C° 0.1 mm 7 m/S 766 mmHg 79%
    12:00 +17°C° 0.1 mm 7 m/S 766 mmHg 78%
    13:00 +17°C° 0.1 mm 7 m/S 766 mmHg 78%
    14:00 +17°C° 0.1 mm 6 m/S 765 mmHg 77%
    15:00 +17°C° 0.1 mm 6 m/S 765 mmHg 77%
    16:00 +17°C° 0.1 mm 6 m/S 765 mmHg 76%
    17:00 +17°C° 0 mm 6 m/S 764 mmHg 78%
    18:00 +16°C° 0 mm 6 m/S 764 mmHg 80%
    19:00 +16°C° 0 mm 6 m/S 764 mmHg 82%
    20:00 +16°C° 0 mm 6 m/S 763 mmHg 81%
    21:00 +16°C° 0 mm 6 m/S 762 mmHg 81%
    22:00 +17°C° 0 mm 7 m/S 761 mmHg 80%
    23:00 +17°C° 0.1 mm 7 m/S 761 mmHg 80%

    übermorgen, 28 September, Freitag

    Zeit Temperatur Niederschläge Wind Luftdruck Luftfeuchtigkeit
    00:00 +16°C° 0.1 mm 7 m/S 760 mmHg 81%
    01:00 +16°C° 0.1 mm 7 m/S 759 mmHg 81%
    02:00 +16°C° 0.5 mm 7 m/S 759 mmHg 81%
    03:00 +15°C° 0.5 mm 7 m/S 759 mmHg 82%
    04:00 +15°C° 0.5 mm 7 m/S 759 mmHg 83%
    05:00 +14°C° 0.2 mm 7 m/S 759 mmHg 81%
    06:00 +12°C° 0.2 mm 7 m/S 760 mmHg 79%
    07:00 +13°C° 0.2 mm 6 m/S 760 mmHg 77%
    08:00 +13°C° 0 mm 6 m/S 761 mmHg 71%
    09:00 +14°C° 0 mm 7 m/S 761 mmHg 65%
    10:00 +14°C° 0 mm 7 m/S 762 mmHg 59%
    11:00 +14°C° 0 mm 7 m/S 762 mmHg 57%
    12:00 +15°C° 0 mm 6 m/S 762 mmHg 56%
    13:00 +15°C° 0 mm 6 m/S 762 mmHg 54%
    14:00 +14°C° 0 mm 6 m/S 763 mmHg 56%
    15:00 +14°C° 0 mm 6 m/S 763 mmHg 57%
    16:00 +14°C° 0 mm 5 m/S 763 mmHg 58%
    17:00 +12°C° 0 mm 5 m/S 763 mmHg 64%
    18:00 +11°C° 0 mm 4 m/S 763 mmHg 70%
    19:00 +10°C° 0 mm 3 m/S 764 mmHg 75%
    20:00 +9°C° 0 mm 3 m/S 764 mmHg 76%
    21:00 +9°C° 0 mm 2 m/S 764 mmHg 77%
    22:00 +9°C° 0 mm 2 m/S 765 mmHg 77%
    23:00 +8°C° 0 mm 2 m/S 765 mmHg 78%

    29 September, Samstag

    Zeit Temperatur Niederschläge Wind Luftdruck Luftfeuchtigkeit
    00:00 +8°C° 0 mm 2 m/S 765 mmHg 78%
    01:00 +7°C° 0 mm 2 m/S 765 mmHg 78%
    02:00 +7°C° 0.2 mm 2 m/S 766 mmHg 79%
    03:00 +7°C° 0.2 mm 2 m/S 766 mmHg 80%
    04:00 +7°C° 0.2 mm 2 m/S 766 mmHg 81%
    05:00 +7°C° 0.1 mm 2 m/S 767 mmHg 80%
    06:00 +8°C° 0.1 mm 2 m/S 767 mmHg 79%
    07:00 +9°C° 0.1 mm 1 m/S 767 mmHg 78%
    08:00 +10°C° 0.1 mm 2 m/S 768 mmHg 70%
    09:00 +11°C° 0.1 mm 3 m/S 769 mmHg 61%
    10:00 +12°C° 0.1 mm 4 m/S 769 mmHg 53%
    11:00 +13°C° 0 mm 3 m/S 769 mmHg 50%
    12:00 +13°C° 0 mm 3 m/S 769 mmHg 47%
    13:00 +13°C° 0 mm 3 m/S 770 mmHg 45%
    14:00 +13°C° 0 mm 3 m/S 770 mmHg 46%
    15:00 +13°C° 0 mm 3 m/S 770 mmHg 47%
    16:00 +13°C° 0 mm 2 m/S 770 mmHg 49%
    17:00 +12°C° 0 mm 2 m/S 770 mmHg 53%
    18:00 +10°C° 0 mm 1 m/S 770 mmHg 57%
    19:00 +9°C° 0 mm 1 m/S 771 mmHg 61%
    20:00 +8°C° 0 mm 1 m/S 771 mmHg 62%
    21:00 +7°C° 0 mm 2 m/S 771 mmHg 63%
    22:00 +7°C° 0 mm 2 m/S 771 mmHg 64%
    23:00 +7°C° 0 mm 3 m/S 771 mmHg 66%

    30 September, Sonntag

    Zeit Temperatur Niederschläge Wind Luftdruck Luftfeuchtigkeit
    00:00 +5°C° 0 mm 3 m/S 770 mmHg 68%
    01:00 +5°C° 0 mm 3 m/S 770 mmHg 69%
    02:00 +5°C° 0 mm 3 m/S 770 mmHg 70%
    03:00 +5°C° 0 mm 4 m/S 770 mmHg 71%
    04:00 +5°C° 0 mm 4 m/S 770 mmHg 72%
    05:00 +5°C° 0 mm 4 m/S 769 mmHg 71%
    06:00 +5°C° 0 mm 4 m/S 769 mmHg 70%
    07:00 +6°C° 0 mm 4 m/S 769 mmHg 69%
    08:00 +8°C° 0 mm 4 m/S 769 mmHg 63%
    09:00 +10°C° 0 mm 5 m/S 769 mmHg 57%
    10:00 +13°C° 0 mm 5 m/S 769 mmHg 51%
    11:00 +13°C° 0 mm 5 m/S 768 mmHg 49%
    12:00 +14°C° 0 mm 5 m/S 768 mmHg 47%
    13:00 +15°C° 0 mm 5 m/S 767 mmHg 45%
    14:00 +14°C° 0 mm 5 m/S 767 mmHg 47%
    15:00 +14°C° 0 mm 4 m/S 767 mmHg 49%
    16:00 +14°C° 0 mm 4 m/S 766 mmHg 51%
    17:00 +12°C° 0 mm 3 m/S 766 mmHg 55%
    18:00 +11°C° 0 mm 3 m/S 766 mmHg 59%
    19:00 +9°C° 0 mm 3 m/S 766 mmHg 62%
    20:00 +9°C° 0 mm 3 m/S 766 mmHg 64%
    21:00 +9°C° 0 mm 3 m/S 765 mmHg 66%
    22:00 +8°C° 0 mm 3 m/S 765 mmHg 68%
    23:00 +8°C° 0 mm 3 m/S 765 mmHg 70%

    1 Oktober, Montag

    Zeit Temperatur Niederschläge Wind Luftdruck Luftfeuchtigkeit
    00:00 +8°C° 0 mm 3 m/S 764 mmHg 72%
    01:00 +7°C° 0 mm 3 m/S 764 mmHg 73%
    02:00 +7°C° 0 mm 3 m/S 764 mmHg 74%
    03:00 +7°C° 0 mm 3 m/S 763 mmHg 74%
    04:00 +7°C° 0 mm 3 m/S 763 mmHg 74%
    05:00 +7°C° 0 mm 3 m/S 762 mmHg 72%
    06:00 +7°C° 0 mm 3 m/S 762 mmHg 70%
    07:00 +7°C° 0 mm 3 m/S 762 mmHg 68%
    08:00 +9°C° 0 mm 3 m/S 762 mmHg 62%
    09:00 +11°C° 0 mm 4 m/S 761 mmHg 56%
    10:00 +13°C° 0 mm 4 m/S 761 mmHg 49%
    11:00 +14°C° 0 mm 3 m/S 760 mmHg 47%
    12:00 +16°C° 0 mm 3 m/S 760 mmHg 45%
    13:00 +17°C° 0 mm 3 m/S 759 mmHg 43%
    14:00 +16°C° 0 mm 3 m/S 759 mmHg 47%
    15:00 +16°C° 0 mm 2 m/S 758 mmHg 50%
    16:00 +16°C° 0 mm 2 m/S 758 mmHg 54%
    17:00 +14°C° 0 mm 2 m/S 758 mmHg 59%
    18:00 +13°C° 0 mm 2 m/S 758 mmHg 64%
    19:00 +12°C° 0 mm 2 m/S 758 mmHg 68%
    20:00 +10°C° 0 mm 2 m/S 757 mmHg 70%
    21:00 +10°C° 0 mm 2 m/S 757 mmHg 71%
    22:00 +10°C° 0 mm 2 m/S 757 mmHg 72%
    23:00 +10°C° 0 mm 2 m/S 757 mmHg 73%
    Mehr zeigen